Time,TemperatureF,DewpointF,PressureIn,WindDirection,WindDirectionDegrees,WindSpeedMPH,WindSpeedGustMPH,Humidity,HourlyPrecipIn,Conditions,Clouds,dailyrainin,SoftwareType,DateUTC
2013-01-07 00:00:00,18.0,15.6,30.37,South,174,0.0,0.0,90,0.00,,---,0.00,VWS V14.01,2013-01-07 06:00:00,
2013-01-07 00:05:00,18.0,15.6,30.37,South,174,0.0,0.0,90,0.00,,---,0.00,VWS V14.01,2013-01-07 06:05:00,
2013-01-07 00:10:00,17.9,15.5,30.37,South,174,0.0,0.0,90,0.00,,---,0.00,VWS V14.01,2013-01-07 06:10:00,
2013-01-07 00:15:00,17.9,15.5,30.37,South,174,0.0,0.0,90,0.00,,---,0.00,VWS V14.01,2013-01-07 06:15:00,
2013-01-07 00:20:00,18.0,15.6,30.37,South,174,0.0,0.0,90,0.00,,---,0.00,VWS V14.01,2013-01-07 06:20:00,
2013-01-07 00:25:00,17.9,15.5,30.37,South,173,0.0,2.0,90,0.00,,---,0.00,VWS V14.01,2013-01-07 06:25:00,
2013-01-07 00:30:00,18.0,15.6,30.37,South,174,0.0,0.0,90,0.00,,---,0.00,VWS V14.01,2013-01-07 06:30:00,
2013-01-07 00:35:00,18.0,15.6,30.37,South,174,0.0,1.0,90,0.00,,---,0.00,VWS V14.01,2013-01-07 06:35:00,
2013-01-07 00:40:00,17.8,15.4,30.37,South,174,0.0,2.0,90,0.00,,---,0.00,VWS V14.01,2013-01-07 06:40:00,
2013-01-07 00:45:00,17.7,15.3,30.37,South,174,0.0,2.0,90,0.00,,---,0.00,VWS V14.01,2013-01-07 06:45:00,
2013-01-07 00:50:00,17.6,15.2,30.37,South,174,0.0,2.0,90,0.00,,---,0.00,VWS V14.01,2013-01-07 06:50:00,
2013-01-07 00:55:00,17.6,15.2,30.37,South,174,0.0,2.0,90,0.00,,---,0.00,VWS V14.01,2013-01-07 06:55:00,
2013-01-07 01:00:00,17.9,15.7,30.37,South,174,0.0,0.0,91,0.00,,---,0.00,VWS V14.01,2013-01-07 07:00:00,
2013-01-07 01:05:00,18.0,15.6,30.37,South,174,0.0,1.0,90,0.00,,---,0.00,VWS V14.01,2013-01-07 07:05:00,
2013-01-07 01:10:00,17.9,15.5,30.37,South,174,1.0,2.0,90,0.00,,---,0.00,VWS V14.01,2013-01-07 07:10:00,
2013-01-07 01:15:00,18.1,15.7,30.37,South,174,2.0,4.0,90,0.00,,---,0.00,VWS V14.01,2013-01-07 07:15:00,
2013-01-07 01:20:00,18.2,15.8,30.36,South,181,1.0,6.0,90,0.00,,---,0.00,VWS V14.01,2013-01-07 07:20:00,
2013-01-07 01:25:00,18.2,15.8,30.36,SSW,201,0.0,6.0,90,0.00,,---,0.00,VWS V14.01,2013-01-07 07:25:00,
2013-01-07 01:30:00,18.1,15.7,30.36,South,188,1.0,5.0,90,0.00,,---,0.00,VWS V14.01,2013-01-07 07:30:00,
2013-01-07 01:35:00,17.9,15.5,30.36,South,188,0.0,5.0,90,0.00,,---,0.00,VWS V14.01,2013-01-07 07:35:00,
2013-01-07 01:40:00,17.6,15.2,30.36,South,188,0.0,5.0,90,0.00,,---,0.00,VWS V14.01,2013-01-07 07:40:00,
2013-01-07 01:45:00,17.4,15.0,30.37,South,188,0.0,5.0,90,0.00,,---,0.00,VWS V14.01,2013-01-07 07:45:00,
2013-01-07 01:50:00,17.3,14.9,30.37,South,188,0.0,5.0,90,0.00,,---,0.00,VWS V14.01,2013-01-07 07:50:00,
2013-01-07 01:55:00,17.3,14.9,30.37,South,188,0.0,5.0,90,0.00,,---,0.00,VWS V14.01,2013-01-07 07:55:00,
2013-01-07 02:00:00,17.3,14.9,30.37,South,188,0.0,0.0,90,0.00,,---,0.00,VWS V14.01,2013-01-07 08:00:00,
2013-01-07 02:05:00,17.5,15.1,30.37,South,188,0.0,2.0,90,0.00,,---,0.00,VWS V14.01,2013-01-07 08:05:00,
2013-01-07 02:10:00,17.8,15.6,30.38,South,188,1.0,4.0,91,0.00,,---,0.00,VWS V14.01,2013-01-07 08:10:00,
2013-01-07 02:15:00,18.1,15.9,30.38,South,188,1.0,6.0,91,0.00,,---,0.00,VWS V14.01,2013-01-07 08:15:00,
2013-01-07 02:20:00,18.2,16.0,30.38,South,188,0.0,6.0,91,0.00,,---,0.00,VWS V14.01,2013-01-07 08:20:00,
2013-01-07 02:25:00,18.3,15.9,30.38,South,188,4.0,6.0,90,0.00,,---,0.00,VWS V14.01,2013-01-07 08:25:00,
2013-01-07 02:30:00,18.4,16.0,30.38,South,184,2.0,3.0,90,0.00,,---,0.00,VWS V14.01,2013-01-07 08:30:00,
2013-01-07 02:35:00,18.3,15.9,30.38,SSE,161,0.0,6.0,90,0.00,,---,0.00,VWS V14.01,2013-01-07 08:35:00,
2013-01-07 02:40:00,18.2,15.8,30.38,SSE,149,4.0,6.0,90,0.00,,---,0.00,VWS V14.01,2013-01-07 08:40:00,
2013-01-07 02:45:00,18.2,15.8,30.37,South,189,1.0,8.0,90,0.00,,---,0.00,VWS V14.01,2013-01-07 08:45:00,
2013-01-07 02:50:00,18.2,15.8,30.38,South,188,2.0,8.0,90,0.00,,---,0.00,VWS V14.01,2013-01-07 08:50:00,
2013-01-07 02:55:00,18.1,15.7,30.38,SSE,150,1.0,8.0,90,0.00,,---,0.00,VWS V14.01,2013-01-07 08:55:00,
2013-01-07 03:00:00,18.1,15.7,30.38,SSE,155,1.0,5.0,90,0.00,,---,0.00,VWS V14.01,2013-01-07 09:00:00,
2013-01-07 03:05:00,18.0,15.6,30.38,SSE,168,1.0,6.0,90,0.00,,---,0.00,VWS V14.01,2013-01-07 09:05:00,
2013-01-07 03:10:00,18.0,15.6,30.38,South,173,1.0,6.0,90,0.00,,---,0.00,VWS V14.01,2013-01-07 09:10:00,
2013-01-07 03:15:00,17.9,15.5,30.38,South,176,0.0,6.0,90,0.00,,---,0.00,VWS V14.01,2013-01-07 09:15:00,
2013-01-07 03:20:00,17.9,15.5,30.38,South,176,3.0,6.0,90,0.00,,---,0.00,VWS V14.01,2013-01-07 09:20:00,
2013-01-07 03:25:00,18.0,15.6,30.38,South,176,4.0,6.0,90,0.00,,---,0.00,VWS V14.01,2013-01-07 09:25:00,
2013-01-07 03:30:00,18.0,15.6,30.38,South,176,0.0,1.0,90,0.00,,---,0.00,VWS V14.01,2013-01-07 09:30:00,
2013-01-07 03:35:00,18.0,15.6,30.38,South,176,0.0,1.0,90,0.00,,---,0.00,VWS V14.01,2013-01-07 09:35:00,
2013-01-07 03:40:00,18.1,15.7,30.38,South,176,1.0,5.0,90,0.00,,---,0.00,VWS V14.01,2013-01-07 09:40:00,
2013-01-07 03:45:00,18.1,15.7,30.38,South,176,1.0,5.0,90,0.00,,---,0.00,VWS V14.01,2013-01-07 09:45:00,
2013-01-07 03:50:00,17.9,15.5,30.38,South,176,5.0,6.0,90,0.00,,---,0.00,VWS V14.01,2013-01-07 09:50:00,
2013-01-07 03:55:00,17.7,15.3,30.37,South,176,2.0,6.0,90,0.00,,---,0.00,VWS V14.01,2013-01-07 09:55:00,
2013-01-07 04:00:00,17.7,15.3,30.38,South,176,0.0,1.0,90,0.00,,---,0.00,VWS V14.01,2013-01-07 10:00:00,
2013-01-07 04:05:00,17.7,15.3,30.37,South,176,0.0,5.0,90,0.00,,---,0.00,VWS V14.01,2013-01-07 10:05:00,
2013-01-07 04:10:00,17.5,15.1,30.37,South,176,0.0,5.0,90,0.00,,---,0.00,VWS V14.01,2013-01-07 10:10:00,
2013-01-07 04:15:00,17.3,14.9,30.37,South,176,2.0,6.0,90,0.00,,---,0.00,VWS V14.01,2013-01-07 10:15:00,
2013-01-07 04:20:00,17.1,14.7,30.37,South,176,3.0,6.0,90,0.00,,---,0.00,VWS V14.01,2013-01-07 10:20:00,
2013-01-07 04:25:00,17.2,14.8,30.37,South,176,0.0,6.0,90,0.00,,---,0.00,VWS V14.01,2013-01-07 10:25:00,
2013-01-07 04:30:00,17.3,15.1,30.37,South,178,0.0,2.0,91,0.00,,---,0.00,VWS V14.01,2013-01-07 10:30:00,
2013-01-07 04:35:00,17.5,15.3,30.37,SSE,158,3.0,7.0,91,0.00,,---,0.00,VWS V14.01,2013-01-07 10:35:00,
2013-01-07 04:40:00,17.7,15.5,30.37,SSE,158,0.0,7.0,91,0.00,,---,0.00,VWS V14.01,2013-01-07 10:40:00,
2013-01-07 04:45:00,17.7,15.5,30.37,SSE,167,1.0,7.0,91,0.00,,---,0.00,VWS V14.01,2013-01-07 10:45:00,
2013-01-07 04:50:00,17.8,15.6,30.37,South,176,1.0,7.0,91,0.00,,---,0.00,VWS V14.01,2013-01-07 10:50:00,
2013-01-07 04:55:00,17.9,15.7,30.37,South,184,1.0,7.0,91,0.00,,---,0.00,VWS V14.01,2013-01-07 10:55:00,
2013-01-07 05:00:00,18.0,15.8,30.37,South,178,5.0,5.0,91,0.00,,---,0.00,VWS V14.01,2013-01-07 11:00:00,
2013-01-07 05:05:00,18.2,16.0,30.37,SSE,151,4.0,7.0,91,0.00,,---,0.00,VWS V14.01,2013-01-07 11:05:00,
2013-01-07 05:10:00,18.1,15.9,30.37,South,170,3.0,7.0,91,0.00,,---,0.00,VWS V14.01,2013-01-07 11:10:00,
2013-01-07 05:15:00,17.9,15.7,30.37,SSE,168,6.0,7.0,91,0.00,,---,0.00,VWS V14.01,2013-01-07 11:15:00,
2013-01-07 05:20:00,17.9,15.7,30.37,South,186,2.0,7.0,91,0.00,,---,0.00,VWS V14.01,2013-01-07 11:20:00,
2013-01-07 05:25:00,17.7,15.5,30.36,SSE,158,5.0,8.0,91,0.00,,---,0.00,VWS V14.01,2013-01-07 11:25:00,
2013-01-07 05:30:00,17.9,15.7,30.36,South,180,2.0,4.0,91,0.00,,---,0.00,VWS V14.01,2013-01-07 11:30:00,
2013-01-07 05:35:00,17.8,15.6,30.36,SSW,194,2.0,7.0,91,0.00,,---,0.00,VWS V14.01,2013-01-07 11:35:00,
2013-01-07 05:40:00,18.0,15.8,30.36,SE,137,2.0,7.0,91,0.00,,---,0.00,VWS V14.01,2013-01-07 11:40:00,
2013-01-07 05:45:00,18.2,16.0,30.36,SSE,159,4.0,7.0,91,0.00,,---,0.00,VWS V14.01,2013-01-07 11:45:00,
2013-01-07 05:50:00,18.5,16.6,30.36,South,171,3.0,9.0,92,0.00,,---,0.00,VWS V14.01,2013-01-07 11:50:00,
2013-01-07 05:55:00,18.7,16.5,30.36,SSE,159,6.0,9.0,91,0.00,,---,0.00,VWS V14.01,2013-01-07 11:55:00,
2013-01-07 06:00:00,18.9,16.7,30.36,SSE,159,4.0,7.0,91,0.00,,---,0.00,VWS V14.01,2013-01-07 12:00:00,
2013-01-07 06:05:00,19.2,17.0,30.36,SSE,157,5.0,9.0,91,0.00,,---,0.00,VWS V14.01,2013-01-07 12:05:00,
2013-01-07 06:10:00,19.3,17.1,30.35,SSW,195,3.0,9.0,91,0.00,,---,0.00,VWS V14.01,2013-01-07 12:10:00,
2013-01-07 06:15:00,19.5,17.3,30.35,ESE,104,2.0,9.0,91,0.00,,---,0.00,VWS V14.01,2013-01-07 12:15:00,
2013-01-07 06:20:00,19.7,17.5,30.35,SE,144,5.0,12.0,91,0.00,,---,0.00,VWS V14.01,2013-01-07 12:20:00,
2013-01-07 06:25:00,19.8,17.6,30.35,SSE,162,6.0,12.0,91,0.00,,---,0.00,VWS V14.01,2013-01-07 12:25:00,
2013-01-07 06:30:00,19.9,17.7,30.35,SSE,153,4.0,7.0,91,0.00,,---,0.00,VWS V14.01,2013-01-07 12:30:00,
2013-01-07 06:35:00,20.0,17.5,30.35,SSE,166,6.0,11.0,90,0.00,,---,0.00,VWS V14.01,2013-01-07 12:35:00,
2013-01-07 06:40:00,20.1,17.6,30.35,SSE,155,2.0,11.0,90,0.00,,---,0.00,VWS V14.01,2013-01-07 12:40:00,
2013-01-07 06:45:00,20.1,17.6,30.35,SSE,161,7.0,11.0,90,0.00,,---,0.00,VWS V14.01,2013-01-07 12:45:00,
2013-01-07 06:50:00,20.1,17.6,30.35,SSE,167,5.0,11.0,90,0.00,,---,0.00,VWS V14.01,2013-01-07 12:50:00,
2013-01-07 06:55:00,20.1,17.4,30.35,SE,141,4.0,11.0,89,0.00,,---,0.00,VWS V14.01,2013-01-07 12:55:00,
2013-01-07 07:00:00,20.3,17.8,30.35,South,172,4.0,7.0,90,0.00,,---,0.00,VWS V14.01,2013-01-07 13:00:00,
2013-01-07 07:05:00,20.5,18.0,30.35,SSE,154,6.0,14.0,90,0.00,,---,0.00,VWS V14.01,2013-01-07 13:05:00,
2013-01-07 07:10:00,20.7,18.0,30.34,South,181,4.0,14.0,89,0.00,,---,0.00,VWS V14.01,2013-01-07 13:10:00,
2013-01-07 07:15:00,20.8,18.1,30.34,SE,139,5.0,14.0,89,0.00,,---,0.00,VWS V14.01,2013-01-07 13:15:00,
2013-01-07 07:20:00,20.8,18.1,30.35,SSE,157,12.0,14.0,89,0.00,,---,0.00,VWS V14.01,2013-01-07 13:20:00,
2013-01-07 07:25:00,20.9,18.2,30.34,SE,146,6.0,14.0,89,0.00,,---,0.00,VWS V14.01,2013-01-07 13:25:00,
2013-01-07 07:30:00,20.9,18.2,30.35,South,175,8.0,11.0,89,0.00,,---,0.00,VWS V14.01,2013-01-07 13:30:00,
2013-01-07 07:35:00,21.0,18.3,30.35,SE,144,6.0,12.0,89,0.00,,---,0.00,VWS V14.01,2013-01-07 13:35:00,
2013-01-07 07:40:00,21.0,18.3,30.35,SSE,157,7.0,12.0,89,0.00,,---,0.00,VWS V14.01,2013-01-07 13:40:00,
2013-01-07 07:45:00,20.9,18.2,30.35,SSE,165,6.0,12.0,89,0.00,,---,0.00,VWS V14.01,2013-01-07 13:45:00,
2013-01-07 07:50:00,20.9,18.2,30.35,SSE,148,6.0,12.0,89,0.00,,---,0.00,VWS V14.01,2013-01-07 13:50:00,
2013-01-07 07:55:00,20.9,18.2,30.35,SSE,149,5.0,16.0,89,0.00,,---,0.00,VWS V14.01,2013-01-07 13:55:00,
2013-01-07 08:00:00,20.9,18.2,30.35,SSE,148,6.0,7.0,89,0.00,,---,0.00,VWS V14.01,2013-01-07 14:00:00,
2013-01-07 08:05:00,21.0,18.3,30.35,South,178,4.0,8.0,89,0.00,,---,0.00,VWS V14.01,2013-01-07 14:05:00,
2013-01-07 08:10:00,21.1,18.4,30.35,South,169,5.0,13.0,89,0.00,,---,0.00,VWS V14.01,2013-01-07 14:10:00,
2013-01-07 08:15:00,21.4,18.7,30.34,SSE,168,7.0,13.0,89,0.00,,---,0.00,VWS V14.01,2013-01-07 14:15:00,
2013-01-07 08:20:00,21.6,18.9,30.34,South,179,0.0,13.0,89,0.00,,---,0.00,VWS V14.01,2013-01-07 14:20:00,
2013-01-07 08:25:00,21.8,19.1,30.34,South,175,6.0,13.0,89,0.00,,---,0.00,VWS V14.01,2013-01-07 14:25:00,
2013-01-07 08:30:00,22.1,19.4,30.34,SSE,153,10.0,11.0,89,0.00,,---,0.00,VWS V14.01,2013-01-07 14:30:00,
2013-01-07 08:35:00,22.5,19.8,30.34,ESE,103,7.0,12.0,89,0.00,,---,0.00,VWS V14.01,2013-01-07 14:35:00,
2013-01-07 08:40:00,22.8,20.0,30.34,South,169,3.0,12.0,89,0.00,,---,0.00,VWS V14.01,2013-01-07 14:40:00,
2013-01-07 08:45:00,23.1,20.4,30.34,South,187,10.0,12.0,89,0.00,,---,0.00,VWS V14.01,2013-01-07 14:45:00,
2013-01-07 08:50:00,23.5,20.5,30.34,South,175,9.0,14.0,88,0.00,,---,0.00,VWS V14.01,2013-01-07 14:50:00,
2013-01-07 08:55:00,23.9,20.9,30.34,SE,144,11.0,14.0,88,0.00,,---,0.00,VWS V14.01,2013-01-07 14:55:00,
2013-01-07 09:00:00,24.2,21.2,30.34,SSE,153,7.0,11.0,88,0.00,,---,0.00,VWS V14.01,2013-01-07 15:00:00,
2013-01-07 09:05:00,24.6,21.6,30.34,SSE,165,8.0,13.0,88,0.00,,---,0.00,VWS V14.01,2013-01-07 15:05:00,
2013-01-07 09:10:00,25.4,22.4,30.34,SSE,163,4.0,14.0,88,0.00,,---,0.00,VWS V14.01,2013-01-07 15:10:00,
2013-01-07 09:15:00,26.2,22.9,30.34,SSE,153,5.0,15.0,87,0.00,,---,0.00,VWS V14.01,2013-01-07 15:15:00,
2013-01-07 09:20:00,26.9,23.3,30.34,SSW,202,6.0,15.0,86,0.00,,---,0.00,VWS V14.01,2013-01-07 15:20:00,
2013-01-07 09:25:00,27.6,23.7,30.34,SSE,153,7.0,15.0,85,0.00,,---,0.00,VWS V14.01,2013-01-07 15:25:00,
2013-01-07 09:30:00,28.1,23.9,30.34,South,171,5.0,12.0,84,0.00,,---,0.00,VWS V14.01,2013-01-07 15:30:00,
2013-01-07 09:35:00,28.7,24.2,30.33,South,187,8.0,12.0,83,0.00,,---,0.00,VWS V14.01,2013-01-07 15:35:00,
2013-01-07 09:40:00,29.1,24.3,30.33,SSE,161,6.0,12.0,82,0.00,,---,0.00,VWS V14.01,2013-01-07 15:40:00,
2013-01-07 09:45:00,29.4,24.3,30.33,SE,138,9.0,14.0,81,0.00,,---,0.00,VWS V14.01,2013-01-07 15:45:00,
2013-01-07 09:50:00,29.8,24.7,30.33,South,174,6.0,15.0,81,0.00,,---,0.00,VWS V14.01,2013-01-07 15:50:00,
2013-01-07 09:55:00,30.2,24.8,30.33,SE,138,4.0,16.0,80,0.00,,---,0.00,VWS V14.01,2013-01-07 15:55:00,
2013-01-07 10:00:00,30.6,25.2,30.33,SE,134,5.0,7.0,80,0.00,,---,0.00,VWS V14.01,2013-01-07 16:00:00,
2013-01-07 10:05:00,31.0,25.3,30.33,South,178,3.0,12.0,79,0.00,,---,0.00,VWS V14.01,2013-01-07 16:05:00,
2013-01-07 10:10:00,31.3,25.6,30.33,SSE,147,10.0,15.0,79,0.00,,---,0.00,VWS V14.01,2013-01-07 16:10:00,
2013-01-07 10:15:00,31.7,25.6,30.33,SE,130,8.0,15.0,78,0.00,,---,0.00,VWS V14.01,2013-01-07 16:15:00,
2013-01-07 10:20:00,32.0,25.9,30.33,South,173,10.0,15.0,78,0.00,,---,0.00,VWS V14.01,2013-01-07 16:20:00,
2013-01-07 10:25:00,32.4,26.0,30.33,SSE,148,3.0,15.0,77,0.00,,---,0.00,VWS V14.01,2013-01-07 16:25:00,
2013-01-07 10:30:00,32.6,26.2,30.33,South,180,9.0,9.0,77,0.00,,---,0.00,VWS V14.01,2013-01-07 16:30:00,
2013-01-07 10:35:00,33.0,26.3,30.32,South,186,5.0,13.0,76,0.00,,---,0.00,VWS V14.01,2013-01-07 16:35:00,
2013-01-07 10:40:00,33.3,26.6,30.32,South,169,4.0,19.0,76,0.00,,---,0.00,VWS V14.01,2013-01-07 16:40:00,
2013-01-07 10:45:00,33.5,26.4,30.32,SE,145,6.0,19.0,75,0.00,,---,0.00,VWS V14.01,2013-01-07 16:45:00,
2013-01-07 10:50:00,33.8,26.7,30.31,SSE,158,9.0,19.0,75,0.00,,---,0.00,VWS V14.01,2013-01-07 16:50:00,
2013-01-07 10:55:00,33.9,26.8,30.31,South,187,5.0,19.0,75,0.00,,---,0.00,VWS V14.01,2013-01-07 16:55:00,
2013-01-07 11:00:00,34.2,27.1,30.31,SSE,147,5.0,9.0,75,0.00,,---,0.00,VWS V14.01,2013-01-07 17:00:00,
2013-01-07 11:05:00,34.4,27.3,30.30,SSE,155,6.0,12.0,75,0.00,,---,0.00,VWS V14.01,2013-01-07 17:05:00,
2013-01-07 11:10:00,34.6,27.5,30.30,South,171,5.0,15.0,75,0.00,,---,0.00,VWS V14.01,2013-01-07 17:10:00,
2013-01-07 11:15:00,34.9,27.5,30.29,South,184,8.0,15.0,74,0.00,,---,0.00,VWS V14.01,2013-01-07 17:15:00,
2013-01-07 11:20:00,35.2,27.8,30.29,ESE,114,8.0,15.0,74,0.00,,---,0.00,VWS V14.01,2013-01-07 17:20:00,
2013-01-07 11:25:00,35.4,27.6,30.28,South,169,6.0,20.0,73,0.00,,---,0.00,VWS V14.01,2013-01-07 17:25:00,
2013-01-07 11:30:00,35.6,27.8,30.28,SSE,167,4.0,9.0,73,0.00,,---,0.00,VWS V14.01,2013-01-07 17:30:00,
2013-01-07 11:35:00,35.9,27.8,30.28,SE,132,9.0,19.0,72,0.00,,---,0.00,VWS V14.01,2013-01-07 17:35:00,
2013-01-07 11:40:00,36.1,27.6,30.27,South,175,7.0,19.0,71,0.00,,---,0.00,VWS V14.01,2013-01-07 17:40:00,
2013-01-07 11:45:00,36.4,28.2,30.27,SSW,194,10.0,19.0,72,0.00,,---,0.00,VWS V14.01,2013-01-07 17:45:00,
2013-01-07 11:50:00,36.6,27.8,30.26,SSE,152,6.0,19.0,70,0.00,,---,0.00,VWS V14.01,2013-01-07 17:50:00,
2013-01-07 11:55:00,36.8,27.6,30.25,SSE,167,5.0,19.0,69,0.00,,---,0.00,VWS V14.01,2013-01-07 17:55:00,
2013-01-07 12:00:00,37.1,28.2,30.25,SSE,159,8.0,14.0,70,0.00,,---,0.00,VWS V14.01,2013-01-07 18:00:00,
2013-01-07 12:05:00,37.3,28.4,30.25,SSE,157,10.0,14.0,70,0.00,,---,0.00,VWS V14.01,2013-01-07 18:05:00,
2013-01-07 12:10:00,37.5,28.6,30.24,SSW,200,5.0,19.0,70,0.00,,---,0.00,VWS V14.01,2013-01-07 18:10:00,
2013-01-07 12:15:00,37.8,28.2,30.24,South,178,7.0,19.0,68,0.00,,---,0.00,VWS V14.01,2013-01-07 18:15:00,
2013-01-07 12:20:00,37.9,28.3,30.24,SE,144,7.0,19.0,68,0.00,,---,0.00,VWS V14.01,2013-01-07 18:20:00,
2013-01-07 12:25:00,37.9,28.3,30.24,SSE,166,8.0,19.0,68,0.00,,---,0.00,VWS V14.01,2013-01-07 18:25:00,
2013-01-07 12:30:00,38.1,28.8,30.23,South,186,3.0,12.0,69,0.00,,---,0.00,VWS V14.01,2013-01-07 18:30:00,
2013-01-07 12:35:00,38.2,28.6,30.23,SE,141,7.0,22.0,68,0.00,,---,0.00,VWS V14.01,2013-01-07 18:35:00,
2013-01-07 12:40:00,38.3,28.7,30.22,SE,144,11.0,22.0,68,0.00,,---,0.00,VWS V14.01,2013-01-07 18:40:00,
2013-01-07 12:45:00,38.4,28.8,30.22,South,178,6.0,22.0,68,0.00,,---,0.00,VWS V14.01,2013-01-07 18:45:00,
2013-01-07 12:50:00,38.6,29.0,30.22,SSE,151,4.0,22.0,68,0.00,,---,0.00,VWS V14.01,2013-01-07 18:50:00,
2013-01-07 12:55:00,39.0,29.0,30.22,SSE,155,8.0,22.0,67,0.00,,---,0.00,VWS V14.01,2013-01-07 18:55:00,
2013-01-07 13:00:00,39.1,29.1,30.22,South,173,5.0,9.0,67,0.00,,---,0.00,VWS V14.01,2013-01-07 19:00:00,
2013-01-07 13:05:00,39.1,29.5,30.21,SSW,198,8.0,15.0,68,0.00,,---,0.00,VWS V14.01,2013-01-07 19:05:00,
2013-01-07 13:10:00,39.1,29.1,30.21,South,190,8.0,15.0,67,0.00,,---,0.00,VWS V14.01,2013-01-07 19:10:00,
2013-01-07 13:15:00,39.3,29.3,30.21,SSE,150,4.0,18.0,67,0.00,,---,0.00,VWS V14.01,2013-01-07 19:15:00,
2013-01-07 13:20:00,39.5,29.1,30.21,WSW,238,7.0,19.0,66,0.00,,---,0.00,VWS V14.01,2013-01-07 19:20:00,
2013-01-07 13:25:00,39.6,29.2,30.21,SSE,168,10.0,19.0,66,0.00,,---,0.00,VWS V14.01,2013-01-07 19:25:00,
2013-01-07 13:30:00,39.7,30.0,30.21,SE,141,3.0,7.0,68,0.00,,---,0.00,VWS V14.01,2013-01-07 19:30:00,
2013-01-07 13:35:00,39.7,29.7,30.21,South,186,7.0,12.0,67,0.00,,---,0.00,VWS V14.01,2013-01-07 19:35:00,
2013-01-07 13:40:00,39.8,29.4,30.20,South,182,3.0,13.0,66,0.00,,---,0.00,VWS V14.01,2013-01-07 19:40:00,
2013-01-07 13:45:00,39.9,29.9,30.20,South,174,5.0,14.0,67,0.00,,---,0.00,VWS V14.01,2013-01-07 19:45:00,
2013-01-07 13:50:00,39.9,29.5,30.20,South,190,5.0,14.0,66,0.00,,---,0.00,VWS V14.01,2013-01-07 19:50:00,
2013-01-07 13:55:00,39.9,29.9,30.20,SSE,159,8.0,19.0,67,0.00,,---,0.00,VWS V14.01,2013-01-07 19:55:00,
2013-01-07 14:00:00,39.8,29.4,30.20,South,179,5.0,7.0,66,0.00,,---,0.00,VWS V14.01,2013-01-07 20:00:00,
2013-01-07 14:05:00,39.7,29.7,30.20,SSW,198,3.0,14.0,67,0.00,,---,0.00,VWS V14.01,2013-01-07 20:05:00,
2013-01-07 14:10:00,39.8,30.1,30.20,SSE,163,1.0,14.0,68,0.00,,---,0.00,VWS V14.01,2013-01-07 20:10:00,
2013-01-07 14:15:00,39.8,29.8,30.20,South,184,5.0,14.0,67,0.00,,---,0.00,VWS V14.01,2013-01-07 20:15:00,
2013-01-07 14:19:00,39.7,30.0,30.20,South,174,3.0,14.0,68,0.00,,---,0.00,VWS V14.01,2013-01-07 20:19:00,
2013-01-07 14:24:00,39.5,29.5,30.20,South,189,5.0,14.0,67,0.00,,---,0.00,VWS V14.01,2013-01-07 20:24:00,
2013-01-07 14:29:00,39.3,29.6,30.20,SSW,192,3.0,14.0,68,0.00,,---,0.00,VWS V14.01,2013-01-07 20:29:00,
2013-01-07 14:30:00,39.2,30.6,30.18,SSE,148,10.0,13.0,71,0.00,,---,0.00,VWS V14.01,2013-01-07 20:30:00,
2013-01-07 14:34:00,39.3,29.6,30.20,South,171,4.0,12.0,68,0.00,,---,0.00,VWS V14.01,2013-01-07 20:34:00,
2013-01-07 14:39:00,39.3,30.0,30.20,South,184,5.0,12.0,69,0.00,,---,0.00,VWS V14.01,2013-01-07 20:39:00,
2013-01-07 14:44:00,39.4,30.1,30.20,SSE,155,9.0,12.0,69,0.00,,---,0.00,VWS V14.01,2013-01-07 20:44:00,
2013-01-07 14:49:00,39.4,29.7,30.20,SSW,201,6.0,12.0,68,0.00,,---,0.00,VWS V14.01,2013-01-07 20:49:00,
2013-01-07 14:54:00,39.3,30.4,30.19,SSW,204,10.0,12.0,70,0.00,,---,0.00,VWS V14.01,2013-01-07 20:54:00,
2013-01-07 14:59:00,39.2,30.2,30.19,SSE,159,6.0,12.0,70,0.00,,---,0.00,VWS V14.01,2013-01-07 20:59:00,
2013-01-07 15:00:00,38.1,29.9,30.18,SE,140,7.0,14.0,72,0.00,,---,0.00,VWS V14.01,2013-01-07 21:00:00,
2013-01-07 15:04:00,39.4,30.4,30.19,SSE,166,4.0,13.0,70,0.00,,---,0.00,VWS V14.01,2013-01-07 21:04:00,
2013-01-07 15:09:00,39.5,30.5,30.19,South,173,11.0,13.0,70,0.00,,---,0.00,VWS V14.01,2013-01-07 21:09:00,
2013-01-07 15:14:00,39.4,30.4,30.18,SE,138,5.0,13.0,70,0.00,,---,0.00,VWS V14.01,2013-01-07 21:14:00,
2013-01-07 15:19:00,39.3,30.4,30.18,SSE,167,7.0,13.0,70,0.00,,---,0.00,VWS V14.01,2013-01-07 21:19:00,
2013-01-07 15:24:00,39.3,30.4,30.18,South,178,4.0,13.0,70,0.00,,---,0.00,VWS V14.01,2013-01-07 21:24:00,
2013-01-07 15:29:00,39.2,30.6,30.18,SSE,159,5.0,13.0,71,0.00,,---,0.00,VWS V14.01,2013-01-07 21:29:00,
2013-01-07 15:30:00,36.6,29.8,30.17,SSE,154,2.0,14.0,76,0.00,,---,0.00,VWS V14.01,2013-01-07 21:30:00,
2013-01-07 15:34:00,39.0,30.4,30.18,SSW,196,7.0,13.0,71,0.00,,---,0.00,VWS V14.01,2013-01-07 21:34:00,
2013-01-07 15:39:00,38.8,30.6,30.18,SSE,155,4.0,13.0,72,0.00,,---,0.00,VWS V14.01,2013-01-07 21:39:00,
2013-01-07 15:44:00,38.7,30.1,30.18,SE,146,5.0,13.0,71,0.00,,---,0.00,VWS V14.01,2013-01-07 21:44:00,
2013-01-07 15:49:00,38.4,30.2,30.18,SSE,154,5.0,14.0,72,0.00,,---,0.00,VWS V14.01,2013-01-07 21:49:00,
2013-01-07 15:54:00,38.3,31.4,30.18,South,180,10.0,14.0,76,0.00,,---,0.00,VWS V14.01,2013-01-07 21:54:00,
2013-01-07 15:59:00,38.1,29.9,30.18,SE,146,5.0,14.0,72,0.00,,---,0.00,VWS V14.01,2013-01-07 21:59:00,
2013-01-07 16:00:00,35.7,29.8,30.17,SSE,158,7.0,13.0,79,0.00,,---,0.00,VWS V14.01,2013-01-07 22:00:00,
2013-01-07 16:04:00,38.0,30.1,30.18,South,170,2.0,12.0,73,0.00,,---,0.00,VWS V14.01,2013-01-07 22:04:00,
2013-01-07 16:09:00,37.8,29.9,30.17,East,91,6.0,13.0,73,0.00,,---,0.00,VWS V14.01,2013-01-07 22:09:00,
2013-01-07 16:14:00,37.5,30.0,30.17,SSE,157,4.0,13.0,74,0.00,,---,0.00,VWS V14.01,2013-01-07 22:14:00,
2013-01-07 16:19:00,37.2,30.0,30.17,SSE,156,4.0,13.0,75,0.00,,---,0.00,VWS V14.01,2013-01-07 22:19:00,
2013-01-07 16:24:00,37.0,29.8,30.18,SE,143,6.0,13.0,75,0.00,,---,0.00,VWS V14.01,2013-01-07 22:24:00,
2013-01-07 16:29:00,36.7,29.9,30.17,SSE,153,4.0,14.0,76,0.00,,---,0.00,VWS V14.01,2013-01-07 22:29:00,
2013-01-07 16:30:00,35.5,30.0,30.16,SSE,159,7.0,11.0,80,0.00,,---,0.00,VWS V14.01,2013-01-07 22:30:00,
2013-01-07 16:34:00,36.4,29.6,30.17,SSE,165,8.0,13.0,76,0.00,,---,0.00,VWS V14.01,2013-01-07 22:34:00,
2013-01-07 16:39:00,36.2,29.7,30.17,SSE,166,4.0,13.0,77,0.00,,---,0.00,VWS V14.01,2013-01-07 22:39:00,
2013-01-07 16:44:00,36.1,29.6,30.17,SSE,165,8.0,13.0,77,0.00,,---,0.00,VWS V14.01,2013-01-07 22:44:00,
2013-01-07 16:49:00,35.9,29.7,30.17,SSW,194,4.0,13.0,78,0.00,,---,0.00,VWS V14.01,2013-01-07 22:49:00,
2013-01-07 16:54:00,35.7,29.5,30.17,SSE,147,2.0,13.0,78,0.00,,---,0.00,VWS V14.01,2013-01-07 22:54:00,
2013-01-07 16:59:00,35.7,29.8,30.17,SE,143,5.0,13.0,79,0.00,,---,0.00,VWS V14.01,2013-01-07 22:59:00,
2013-01-07 17:00:00,35.1,29.9,30.16,SE,132,6.0,15.0,81,0.00,,---,0.00,VWS V14.01,2013-01-07 23:00:00,
2013-01-07 17:04:00,35.7,29.8,30.17,SSE,151,10.0,10.0,79,0.00,,---,0.00,VWS V14.01,2013-01-07 23:04:00,
2013-01-07 17:09:00,35.8,29.9,30.17,South,173,4.0,11.0,79,0.00,,---,0.00,VWS V14.01,2013-01-07 23:09:00,
2013-01-07 17:14:00,35.7,29.8,30.17,SSE,149,5.0,11.0,79,0.00,,---,0.00,VWS V14.01,2013-01-07 23:14:00,
2013-01-07 17:19:00,35.6,29.7,30.16,SSE,161,5.0,11.0,79,0.00,,---,0.00,VWS V14.01,2013-01-07 23:19:00,
2013-01-07 17:24:00,35.5,30.0,30.16,SSE,148,5.0,11.0,80,0.00,,---,0.00,VWS V14.01,2013-01-07 23:24:00,
2013-01-07 17:29:00,35.5,30.0,30.16,SSE,150,9.0,11.0,80,0.00,,---,0.00,VWS V14.01,2013-01-07 23:29:00,
2013-01-07 17:30:00,34.4,29.8,30.15,SE,136,5.0,14.0,83,0.00,,---,0.00,VWS V14.01,2013-01-07 23:30:00,
2013-01-07 17:34:00,35.6,30.0,30.16,South,171,4.0,15.0,80,0.00,,---,0.00,VWS V14.01,2013-01-07 23:34:00,
2013-01-07 17:39:00,35.5,30.0,30.16,SSE,154,6.0,15.0,80,0.00,,---,0.00,VWS V14.01,2013-01-07 23:39:00,
2013-01-07 17:44:00,35.4,29.9,30.16,SSE,157,5.0,15.0,80,0.00,,---,0.00,VWS V14.01,2013-01-07 23:44:00,
2013-01-07 17:49:00,35.3,30.1,30.16,SSW,193,3.0,15.0,81,0.00,,---,0.00,VWS V14.01,2013-01-07 23:49:00,
2013-01-07 17:54:00,35.2,30.0,30.16,SW,217,4.0,15.0,81,0.00,,---,0.00,VWS V14.01,2013-01-07 23:54:00,
2013-01-07 17:59:00,35.1,29.9,30.16,SSE,163,2.0,15.0,81,0.00,,---,0.00,VWS V14.01,2013-01-07 23:59:00,
2013-01-07 18:00:00,33.5,29.2,30.15,SSE,165,6.0,18.0,84,0.00,,---,0.00,VWS V14.01,2013-01-08 00:00:00,
2013-01-07 18:04:00,35.0,29.8,30.16,SSE,161,9.0,10.0,81,0.00,,---,0.00,VWS V14.01,2013-01-08 00:04:00,
2013-01-07 18:09:00,35.0,30.1,30.16,SSE,164,6.0,11.0,82,0.00,,---,0.00,VWS V14.01,2013-01-08 00:09:00,
2013-01-07 18:14:00,34.8,29.9,30.16,SE,146,5.0,12.0,82,0.00,,---,0.00,VWS V14.01,2013-01-08 00:14:00,
2013-01-07 18:19:00,34.8,29.9,30.16,SSW,205,6.0,12.0,82,0.00,,---,0.00,VWS V14.01,2013-01-08 00:19:00,
2013-01-07 18:24:00,34.5,29.9,30.15,South,177,5.0,13.0,83,0.00,,---,0.00,VWS V14.01,2013-01-08 00:24:00,
2013-01-07 18:29:00,34.4,29.8,30.15,SE,138,5.0,14.0,83,0.00,,---,0.00,VWS V14.01,2013-01-08 00:29:00,
2013-01-07 18:30:00,33.3,29.3,30.15,SSE,148,6.0,16.0,85,0.00,,---,0.00,VWS V14.01,2013-01-08 00:30:00,
2013-01-07 18:34:00,34.4,30.1,30.15,SE,145,7.0,18.0,84,0.00,,---,0.00,VWS V14.01,2013-01-08 00:34:00,
2013-01-07 18:39:00,34.4,30.1,30.15,SW,215,7.0,18.0,84,0.00,,---,0.00,VWS V14.01,2013-01-08 00:39:00,
2013-01-07 18:44:00,34.2,31.3,30.16,SSE,160,10.0,18.0,89,0.00,,---,0.00,VWS V14.01,2013-01-08 00:44:00,
2013-01-07 18:49:00,33.9,29.6,30.16,SSE,147,4.0,18.0,84,0.00,,---,0.00,VWS V14.01,2013-01-08 00:49:00,
2013-01-07 18:54:00,33.7,29.4,30.15,South,175,6.0,18.0,84,0.00,,---,0.00,VWS V14.01,2013-01-08 00:54:00,
2013-01-07 18:59:00,33.5,29.2,30.15,South,169,6.0,18.0,84,0.00,,---,0.00,VWS V14.01,2013-01-08 00:59:00,
2013-01-07 19:00:00,33.0,29.3,30.15,South,181,1.0,16.0,86,0.00,,---,0.00,VWS V14.01,2013-01-08 01:00:00,
2013-01-07 19:04:00,33.4,29.4,30.15,SSE,161,4.0,14.0,85,0.00,,---,0.00,VWS V14.01,2013-01-08 01:04:00,
2013-01-07 19:09:00,33.4,29.4,30.15,South,182,5.0,16.0,85,0.00,,---,0.00,VWS V14.01,2013-01-08 01:09:00,
2013-01-07 19:14:00,33.4,29.4,30.15,South,181,10.0,16.0,85,0.00,,---,0.00,VWS V14.01,2013-01-08 01:14:00,
2013-01-07 19:19:00,33.4,29.4,30.15,South,171,5.0,16.0,85,0.00,,---,0.00,VWS V14.01,2013-01-08 01:19:00,
2013-01-07 19:24:00,33.4,29.4,30.15,SE,143,7.0,16.0,85,0.00,,---,0.00,VWS V14.01,2013-01-08 01:24:00,
2013-01-07 19:29:00,33.3,29.3,30.15,SE,130,9.0,16.0,85,0.00,,---,0.00,VWS V14.01,2013-01-08 01:29:00,
2013-01-07 19:30:00,32.4,29.0,30.16,SSE,161,7.0,13.0,87,0.00,,---,0.00,VWS V14.01,2013-01-08 01:30:00,
2013-01-07 19:34:00,33.3,29.3,30.15,SE,142,4.0,13.0,85,0.00,,---,0.00,VWS V14.01,2013-01-08 01:34:00,
2013-01-07 19:39:00,33.2,29.2,30.15,SSE,155,8.0,13.0,85,0.00,,---,0.00,VWS V14.01,2013-01-08 01:39:00,
2013-01-07 19:44:00,33.1,29.1,30.15,SE,142,6.0,15.0,85,0.00,,---,0.00,VWS V14.01,2013-01-08 01:44:00,
2013-01-07 19:49:00,33.1,29.1,30.15,SSE,155,7.0,15.0,85,0.00,,---,0.00,VWS V14.01,2013-01-08 01:49:00,
2013-01-07 19:54:00,33.1,29.1,30.15,SSE,159,4.0,16.0,85,0.00,,---,0.00,VWS V14.01,2013-01-08 01:54:00,
2013-01-07 19:59:00,33.0,29.0,30.15,SE,143,6.0,16.0,85,0.00,,---,0.00,VWS V14.01,2013-01-08 01:59:00,
2013-01-07 20:00:00,32.2,28.8,30.16,SSE,163,4.0,13.0,87,0.00,,---,0.00,VWS V14.01,2013-01-08 02:00:00,
2013-01-07 20:04:00,32.9,29.2,30.15,South,176,5.0,10.0,86,0.00,,---,0.00,VWS V14.01,2013-01-08 02:04:00,
2013-01-07 20:09:00,32.8,29.1,30.15,East,98,7.0,13.0,86,0.00,,---,0.00,VWS V14.01,2013-01-08 02:09:00,
2013-01-07 20:14:00,32.7,29.0,30.15,SSE,157,6.0,13.0,86,0.00,,---,0.00,VWS V14.01,2013-01-08 02:14:00,
2013-01-07 20:19:00,32.6,28.9,30.15,SSE,163,5.0,13.0,86,0.00,,---,0.00,VWS V14.01,2013-01-08 02:19:00,
2013-01-07 20:24:00,32.5,28.8,30.15,SSE,167,5.0,13.0,86,0.00,,---,0.00,VWS V14.01,2013-01-08 02:24:00,
2013-01-07 20:29:00,32.4,29.0,30.16,SSE,154,4.0,13.0,87,0.00,,---,0.00,VWS V14.01,2013-01-08 02:29:00,
2013-01-07 20:30:00,32.1,28.7,30.15,SSE,164,3.0,13.0,87,0.00,,---,0.00,VWS V14.01,2013-01-08 02:30:00,
2013-01-07 20:34:00,32.4,29.0,30.15,South,180,2.0,12.0,87,0.00,,---,0.00,VWS V14.01,2013-01-08 02:34:00,
2013-01-07 20:39:00,32.3,28.9,30.16,South,172,6.0,12.0,87,0.00,,---,0.00,VWS V14.01,2013-01-08 02:39:00,
2013-01-07 20:44:00,32.2,28.8,30.15,SSE,153,6.0,12.0,87,0.00,,---,0.00,VWS V14.01,2013-01-08 02:44:00,
2013-01-07 20:48:00,32.2,28.8,30.15,SE,136,4.0,12.0,87,0.00,,---,0.00,VWS V14.01,2013-01-08 02:48:00,
2013-01-07 20:53:00,32.2,28.8,30.15,SSE,163,6.0,13.0,87,0.00,,---,0.00,VWS V14.01,2013-01-08 02:53:00,
2013-01-07 20:58:00,32.2,28.8,30.16,SSE,154,4.0,13.0,87,0.00,,---,0.00,VWS V14.01,2013-01-08 02:58:00,
2013-01-07 21:00:00,32.0,28.6,30.15,SSE,147,8.0,16.0,87,0.00,,---,0.00,VWS V14.01,2013-01-08 03:00:00,
2013-01-07 21:03:00,32.2,28.8,30.15,SSE,150,9.0,9.0,87,0.00,,---,0.00,VWS V14.01,2013-01-08 03:03:00,
2013-01-07 21:08:00,32.1,28.7,30.15,SSE,150,8.0,11.0,87,0.00,,---,0.00,VWS V14.01,2013-01-08 03:08:00,
2013-01-07 21:13:00,32.2,28.8,30.15,SSE,160,7.0,13.0,87,0.00,,---,0.00,VWS V14.01,2013-01-08 03:13:00,
2013-01-07 21:18:00,32.2,28.8,30.15,SSW,193,6.0,13.0,87,0.00,,---,0.00,VWS V14.01,2013-01-08 03:18:00,
2013-01-07 21:23:00,32.1,28.7,30.15,SSW,207,9.0,13.0,87,0.00,,---,0.00,VWS V14.01,2013-01-08 03:23:00,
2013-01-07 21:28:00,32.1,28.7,30.15,SE,146,8.0,13.0,87,0.00,,---,0.00,VWS V14.01,2013-01-08 03:28:00,
2013-01-07 21:30:00,31.9,28.2,30.15,SSE,155,5.0,14.0,86,0.00,,---,0.00,VWS V14.01,2013-01-08 03:30:00,
2013-01-07 21:33:00,32.0,28.3,30.15,SSE,159,7.0,12.0,86,0.00,,---,0.00,VWS V14.01,2013-01-08 03:33:00,
2013-01-07 21:38:00,32.0,28.6,30.15,SE,132,8.0,14.0,87,0.00,,---,0.00,VWS V14.01,2013-01-08 03:38:00,
2013-01-07 21:43:00,31.9,28.5,30.14,South,169,8.0,14.0,87,0.00,,---,0.00,VWS V14.01,2013-01-08 03:43:00,
2013-01-07 21:48:00,32.0,28.6,30.14,SSE,160,1.0,14.0,87,0.00,,---,0.00,VWS V14.01,2013-01-08 03:48:00,
2013-01-07 21:53:00,31.9,28.5,30.15,SSW,202,4.0,16.0,87,0.00,,---,0.00,VWS V14.01,2013-01-08 03:53:00,
2013-01-07 21:58:00,32.0,28.6,30.15,SE,145,4.0,16.0,87,0.00,,---,0.00,VWS V14.01,2013-01-08 03:58:00,
2013-01-07 22:00:00,31.4,28.0,30.15,SSE,158,4.0,14.0,87,0.00,,---,0.00,VWS V14.01,2013-01-08 04:00:00,
2013-01-07 22:03:00,32.0,28.6,30.15,SSE,148,8.0,12.0,87,0.00,,---,0.00,VWS V14.01,2013-01-08 04:03:00,
2013-01-07 22:08:00,32.0,28.6,30.15,SSE,157,5.0,14.0,87,0.00,,---,0.00,VWS V14.01,2013-01-08 04:08:00,
2013-01-07 22:13:00,32.0,28.3,30.15,SSE,147,7.0,14.0,86,0.00,,---,0.00,VWS V14.01,2013-01-08 04:13:00,
2013-01-07 22:18:00,32.0,28.6,30.15,South,177,5.0,14.0,87,0.00,,---,0.00,VWS V14.01,2013-01-08 04:18:00,
2013-01-07 22:23:00,31.9,28.2,30.14,SSE,152,9.0,14.0,86,0.00,,---,0.00,VWS V14.01,2013-01-08 04:23:00,
2013-01-07 22:28:00,31.9,28.2,30.15,SSE,152,11.0,14.0,86,0.00,,---,0.00,VWS V14.01,2013-01-08 04:28:00,
2013-01-07 22:30:00,30.9,27.5,30.14,SSE,167,4.0,13.0,87,0.00,,---,0.00,VWS V14.01,2013-01-08 04:30:00,
2013-01-07 22:33:00,31.8,28.1,30.15,SSW,199,5.0,12.0,86,0.00,,---,0.00,VWS V14.01,2013-01-08 04:33:00,
2013-01-07 22:38:00,31.7,28.0,30.15,SSE,157,6.0,14.0,86,0.00,,---,0.00,VWS V14.01,2013-01-08 04:38:00,
2013-01-07 22:43:00,31.6,27.9,30.14,South,169,5.0,14.0,86,0.00,,---,0.00,VWS V14.01,2013-01-08 04:43:00,
2013-01-07 22:48:00,31.5,28.1,30.14,SSE,166,6.0,14.0,87,0.00,,---,0.00,VWS V14.01,2013-01-08 04:48:00,
2013-01-07 22:53:00,31.4,28.0,30.14,SE,146,9.0,14.0,87,0.00,,---,0.00,VWS V14.01,2013-01-08 04:53:00,
2013-01-07 22:58:00,31.4,28.0,30.15,SSE,159,7.0,14.0,87,0.00,,---,0.00,VWS V14.01,2013-01-08 04:58:00,
2013-01-07 23:00:00,31.4,28.0,30.15,SSE,161,7.0,8.0,87,0.00,,---,0.00,VWS V14.01,2013-01-08 05:00:00,
2013-01-07 23:02:00,31.4,28.0,30.15,SSE,166,6.0,9.0,87,0.00,,---,0.00,VWS V14.01,2013-01-08 05:02:00,
2013-01-07 23:03:00,31.4,28.0,30.15,South,171,4.0,10.0,87,0.00,,---,0.00,VWS V14.01,2013-01-08 05:03:00,
2013-01-07 23:08:00,31.2,27.8,30.15,SSE,153,6.0,13.0,87,0.00,,---,0.00,VWS V14.01,2013-01-08 05:08:00,
2013-01-07 23:13:00,31.1,27.7,30.14,SSE,163,5.0,13.0,87,0.00,,---,0.00,VWS V14.01,2013-01-08 05:13:00,
2013-01-07 23:18:00,31.2,27.8,30.15,SE,138,8.0,13.0,87,0.00,,---,0.00,VWS V14.01,2013-01-08 05:18:00,
2013-01-07 23:23:00,31.1,27.7,30.14,SSE,153,7.0,13.0,87,0.00,,---,0.00,VWS V14.01,2013-01-08 05:23:00,
2013-01-07 23:28:00,31.0,27.6,30.14,SE,146,5.0,13.0,87,0.00,,---,0.00,VWS V14.01,2013-01-08 05:28:00,
2013-01-07 23:30:00,29.1,26.0,30.14,South,185,6.0,9.0,88,0.00,,---,0.00,VWS V14.01,2013-01-08 05:30:00,
2013-01-07 23:33:00,30.8,27.4,30.14,SSE,150,4.0,9.0,87,0.00,,---,0.00,VWS V14.01,2013-01-08 05:33:00,
2013-01-07 23:38:00,30.7,27.3,30.14,SSW,211,4.0,10.0,87,0.00,,---,0.00,VWS V14.01,2013-01-08 05:38:00,
2013-01-07 23:43:00,30.4,27.0,30.14,South,169,3.0,10.0,87,0.00,,---,0.00,VWS V14.01,2013-01-08 05:43:00,
2013-01-07 23:48:00,30.0,26.6,30.14,SSE,153,2.0,11.0,87,0.00,,---,0.00,VWS V14.01,2013-01-08 05:48:00,
2013-01-07 23:53:00,29.6,26.2,30.14,ESE,122,1.0,11.0,87,0.00,,---,0.00,VWS V14.01,2013-01-08 05:53:00,
2013-01-07 23:58:00,29.7,26.6,30.14,South,174,1.0,11.0,88,0.00,,---,0.00,VWS V14.01,2013-01-08 05:58:00,